Find STARLINK-36765

NORAD ID: 70595 Constellation: starlink operational
LEOCIRCULAR

Live Position

Loading 3D Globe...

About STARLINK-36765

Description loading...

Upcoming Passes

Passes for default location (London). Set your location on the main map for personalized predictions.

Altitude History

Loading altitude history...

Two-Line Element Set

1 70595C 26099M 26122.84354167 -.00246280 00000+0 -29872-3 0 1225
2 70595 53.1635 22.8020 0005487 287.7192 274.5278 16.07501068 15
Epoch: May 2, 2026 • Age: 30 hours